1582153214,2020-02-20 00:00,100.00,995.36,1013.19,148,1.61,1.61,-93,1
1582153275,2020-02-20 00:01,100.00,995.41,1013.24,148,1.61,1.61,-91,1
1582153335,2020-02-20 00:02,100.00,995.36,1013.20,148,1.62,1.62,-93,1
1582153395,2020-02-20 00:03,100.00,995.41,1013.24,148,1.60,1.60,-93,1
1582153456,2020-02-20 00:04,100.00,995.37,1013.20,148,1.57,1.57,-92,1
1582153516,2020-02-20 00:05,100.00,995.42,1013.26,148,1.58,1.58,-93,1
1582153576,2020-02-20 00:06,100.00,995.40,1013.23,148,1.60,1.60,-93,1
1582153636,2020-02-20 00:07,100.00,995.39,1013.22,148,1.57,1.57,-92,1
1582153696,2020-02-20 00:08,100.00,995.39,1013.22,148,1.55,1.55,-92,1
1582153757,2020-02-20 00:09,100.00,995.23,1013.06,148,1.55,1.55,-91,1
1582153817,2020-02-20 00:10,100.00,995.35,1013.18,148,1.57,1.57,-92,1
1582153877,2020-02-20 00:11,100.00,995.39,1013.22,148,1.55,1.55,-92,1
1582153937,2020-02-20 00:12,100.00,995.39,1013.22,148,1.54,1.54,-91,1
1582153997,2020-02-20 00:13,100.00,995.40,1013.23,148,1.58,1.58,-93,1
1582154060,2020-02-20 00:14,100.00,995.42,1013.26,148,1.57,1.57,-93,1
1582154120,2020-02-20 00:15,100.00,995.40,1013.23,148,1.56,1.56,-91,1
1582154180,2020-02-20 00:16,100.00,995.41,1013.24,148,1.57,1.57,-93,1
1582154303,2020-02-20 00:18,100.00,995.45,1013.28,148,1.56,1.56,-92,1
1582154364,2020-02-20 00:19,100.00,995.40,1013.23,148,1.55,1.55,-95,1
1582154424,2020-02-20 00:20,100.00,995.44,1013.27,148,1.55,1.55,-91,1
1582154484,2020-02-20 00:21,100.00,995.38,1013.21,148,1.56,1.56,-91,1
1582154545,2020-02-20 00:22,100.00,995.45,1013.28,148,1.54,1.54,-93,1
1582154605,2020-02-20 00:23,100.00,995.39,1013.22,148,1.57,1.57,-92,1
1582154665,2020-02-20 00:24,100.00,995.44,1013.27,148,1.57,1.57,-94,1
1582154726,2020-02-20 00:25,100.00,995.53,1013.36,148,1.38,1.38,-92,1
1582154786,2020-02-20 00:26,100.00,995.47,1013.30,148,1.56,1.56,-94,1
1582154846,2020-02-20 00:27,100.00,995.43,1013.26,148,1.55,1.55,-92,1
1582154906,2020-02-20 00:28,100.00,995.46,1013.29,148,1.56,1.56,-93,1
1582154966,2020-02-20 00:29,100.00,995.45,1013.28,148,1.57,1.57,-91,1
1582155027,2020-02-20 00:30,100.00,994.96,1012.80,148,1.55,1.55,-91,1
1582155087,2020-02-20 00:31,100.00,995.44,1013.27,148,1.56,1.56,-90,1
1582155148,2020-02-20 00:32,100.00,995.45,1013.28,148,1.57,1.57,-93,1
1582155209,2020-02-20 00:33,100.00,995.44,1013.27,148,1.55,1.55,-92,1
1582155269,2020-02-20 00:34,100.00,995.47,1013.30,148,1.56,1.56,-93,1
1582155329,2020-02-20 00:35,100.00,995.49,1013.32,148,1.56,1.56,-91,1
1582155389,2020-02-20 00:36,100.00,995.51,1013.34,148,1.58,1.58,-92,1
1582155449,2020-02-20 00:37,100.00,995.49,1013.33,148,1.57,1.57,-91,1
1582155510,2020-02-20 00:38,100.00,995.55,1013.38,148,1.58,1.58,-93,1
1582155570,2020-02-20 00:39,100.00,995.54,1013.38,148,1.56,1.56,-93,1
1582155633,2020-02-20 00:40,100.00,995.54,1013.37,148,1.56,1.56,-93,1
1582155693,2020-02-20 00:41,100.00,995.54,1013.37,148,1.57,1.57,-93,1
1582155753,2020-02-20 00:42,100.00,995.56,1013.39,148,1.56,1.56,-92,1
1582155813,2020-02-20 00:43,100.00,995.55,1013.38,148,1.54,1.54,-94,1
1582155873,2020-02-20 00:44,100.00,995.61,1013.44,148,1.54,1.54,-92,1
1582155933,2020-02-20 00:45,100.00,995.63,1013.46,148,1.54,1.54,-91,1
1582155993,2020-02-20 00:46,100.00,995.63,1013.46,148,1.55,1.55,-93,1
1582156053,2020-02-20 00:47,100.00,995.60,1013.43,148,1.54,1.54,-92,1
1582156114,2020-02-20 00:48,100.00,995.68,1013.51,148,1.53,1.53,-93,1
1582156174,2020-02-20 00:49,100.00,995.68,1013.51,148,1.53,1.53,-93,1
1582156234,2020-02-20 00:50,100.00,995.66,1013.49,148,1.52,1.52,-92,1
1582156294,2020-02-20 00:51,100.00,995.69,1013.52,148,1.50,1.50,-93,1
1582156354,2020-02-20 00:52,100.00,995.75,1013.58,148,1.52,1.52,-92,1
1582156414,2020-02-20 00:53,100.00,995.73,1013.56,148,1.51,1.51,-93,1
1582156475,2020-02-20 00:54,100.00,995.74,1013.57,148,1.49,1.49,-92,1
1582156535,2020-02-20 00:55,100.00,995.76,1013.60,148,1.48,1.48,-92,1
1582156599,2020-02-20 00:56,100.00,995.80,1013.63,148,1.31,1.31,-93,1
1582156659,2020-02-20 00:57,100.00,995.80,1013.63,148,1.45,1.45,-92,1
1582156719,2020-02-20 00:58,100.00,995.75,1013.58,148,1.44,1.44,-92,1
1582156779,2020-02-20 00:59,100.00,995.78,1013.61,148,1.44,1.44,-92,1
1582156839,2020-02-20 01:00,100.00,995.75,1013.58,148,1.42,1.42,-92,1
1582156899,2020-02-20 01:01,100.00,995.77,1013.61,148,1.45,1.45,-91,1
1582156959,2020-02-20 01:02,100.00,995.76,1013.59,148,1.43,1.43,-91,1
1582157019,2020-02-20 01:03,100.00,995.83,1013.66,148,1.43,1.43,-91,1
1582157079,2020-02-20 01:04,100.00,995.82,1013.65,148,1.42,1.42,-92,1
1582157139,2020-02-20 01:05,100.00,995.81,1013.64,148,1.39,1.39,-92,1
1582157200,2020-02-20 01:06,100.00,995.81,1013.64,148,1.40,1.40,-94,1
1582157260,2020-02-20 01:07,100.00,995.86,1013.69,148,1.42,1.42,-91,1
1582157320,2020-02-20 01:08,100.00,995.84,1013.67,148,1.43,1.43,-90,1
1582157380,2020-02-20 01:09,100.00,995.80,1013.64,148,1.42,1.42,-93,1
1582157440,2020-02-20 01:10,100.00,995.77,1013.60,148,1.43,1.43,-93,1
1582157500,2020-02-20 01:11,100.00,995.76,1013.60,148,1.45,1.45,-93,1
1582157561,2020-02-20 01:12,100.00,995.83,1013.66,148,1.48,1.48,-93,1
1582157621,2020-02-20 01:13,100.00,995.83,1013.66,148,1.49,1.49,-92,1
1582157681,2020-02-20 01:14,100.00,995.80,1013.63,148,1.51,1.51,-92,1
1582157742,2020-02-20 01:15,100.00,995.83,1013.66,148,1.53,1.53,-94,1
1582157802,2020-02-20 01:16,100.00,995.84,1013.67,148,1.54,1.54,-92,1
1582157862,2020-02-20 01:17,100.00,995.85,1013.68,148,1.57,1.57,-93,1
1582157922,2020-02-20 01:18,100.00,995.84,1013.67,148,1.60,1.60,-93,1
1582157983,2020-02-20 01:19,100.00,995.84,1013.68,148,1.62,1.62,-91,1
1582158043,2020-02-20 01:20,100.00,995.83,1013.66,148,1.64,1.64,-91,1
1582158103,2020-02-20 01:21,100.00,995.81,1013.64,148,1.67,1.67,-93,1
1582158164,2020-02-20 01:22,100.00,995.82,1013.65,148,1.69,1.69,-91,1
1582158224,2020-02-20 01:23,100.00,995.84,1013.67,148,1.70,1.70,-92,1
1582158284,2020-02-20 01:24,100.00,995.81,1013.64,148,1.70,1.70,-91,1
1582158344,2020-02-20 01:25,100.00,995.82,1013.65,148,1.71,1.71,-90,1
1582158405,2020-02-20 01:26,100.00,995.85,1013.68,148,1.73,1.73,-94,1
1582158465,2020-02-20 01:27,100.00,995.83,1013.66,148,1.73,1.73,-93,1
1582158525,2020-02-20 01:28,100.00,995.87,1013.70,148,1.75,1.75,-91,1
1582158585,2020-02-20 01:29,100.00,995.90,1013.73,148,1.76,1.76,-93,1
1582158645,2020-02-20 01:30,100.00,995.88,1013.71,148,1.75,1.75,-93,1
1582158705,2020-02-20 01:31,100.00,995.90,1013.73,148,1.74,1.74,-94,1
1582158765,2020-02-20 01:32,100.00,995.90,1013.73,148,1.77,1.77,-94,1
1582158826,2020-02-20 01:33,100.00,995.91,1013.74,148,1.78,1.78,-94,1
1582158886,2020-02-20 01:34,100.00,995.91,1013.74,148,1.76,1.76,-92,1
1582158949,2020-02-20 01:35,100.00,995.91,1013.74,148,1.78,1.78,-92,1
1582159009,2020-02-20 01:36,100.00,995.90,1013.73,148,1.81,1.81,-91,1
1582159070,2020-02-20 01:37,100.00,995.92,1013.75,148,1.82,1.82,-93,1
1582159131,2020-02-20 01:38,100.00,995.95,1013.78,148,1.84,1.84,-90,1
1582159191,2020-02-20 01:39,100.00,995.97,1013.80,148,1.86,1.86,-93,1
1582159252,2020-02-20 01:40,100.00,995.96,1013.79,148,1.87,1.87,-93,1
1582159312,2020-02-20 01:41,100.00,995.97,1013.80,148,1.88,1.88,-94,1
1582159373,2020-02-20 01:42,100.00,995.98,1013.81,148,1.87,1.87,-92,1
1582159434,2020-02-20 01:43,100.00,996.03,1013.86,148,1.88,1.88,-93,1
1582159494,2020-02-20 01:44,100.00,996.04,1013.88,148,1.89,1.89,-92,1
1582159554,2020-02-20 01:45,100.00,996.03,1013.86,148,1.88,1.88,-95,1
1582159615,2020-02-20 01:46,100.00,996.01,1013.84,148,1.91,1.91,-93,1
1582159738,2020-02-20 01:48,100.00,996.03,1013.87,148,1.94,1.94,-93,1
1582159799,2020-02-20 01:49,100.00,996.01,1013.84,148,1.95,1.95,-92,1
1582159859,2020-02-20 01:50,100.00,996.01,1013.84,148,1.96,1.96,-93,1
1582159920,2020-02-20 01:52,100.00,996.04,1013.87,148,1.97,1.97,-92,1
1582159980,2020-02-20 01:53,100.00,996.03,1013.86,148,1.96,1.96,-91,1
1582160041,2020-02-20 01:54,100.00,996.03,1013.87,148,1.97,1.97,-92,1
1582160102,2020-02-20 01:55,100.00,996.04,1013.87,148,1.97,1.97,-95,1
1582160162,2020-02-20 01:56,100.00,995.69,1013.52,148,1.97,1.97,-93,1
1582160223,2020-02-20 01:57,100.00,996.04,1013.88,148,1.96,1.96,-93,1
1582160284,2020-02-20 01:58,100.00,996.04,1013.87,148,1.99,1.99,-90,1
1582160345,2020-02-20 01:59,100.00,996.02,1013.85,148,1.97,1.97,-94,1
1582160405,2020-02-20 02:00,100.00,996.06,1013.89,148,2.00,2.00,-92,1
1582160466,2020-02-20 02:01,100.00,996.06,1013.89,148,2.01,2.01,-91,1
1582160527,2020-02-20 02:02,100.00,996.05,1013.88,148,2.01,2.01,-92,1
1582160587,2020-02-20 02:03,100.00,996.06,1013.89,148,1.99,1.99,-93,1
1582160647,2020-02-20 02:04,100.00,996.05,1013.88,148,2.03,2.03,-93,1
1582160708,2020-02-20 02:05,100.00,996.09,1013.92,148,2.05,2.05,-93,1
1582160768,2020-02-20 02:06,100.00,996.12,1013.95,148,2.06,2.06,-92,1
1582160829,2020-02-20 02:07,100.00,996.10,1013.93,148,2.07,2.07,-91,1
1582160889,2020-02-20 02:08,100.00,996.08,1013.91,148,2.09,2.09,-92,1
1582160949,2020-02-20 02:09,100.00,996.09,1013.92,148,2.06,2.06,-93,1
1582161010,2020-02-20 02:10,100.00,996.07,1013.91,148,2.08,2.08,-90,1
1582161070,2020-02-20 02:11,100.00,996.09,1013.92,148,2.10,2.10,-92,1
1582161130,2020-02-20 02:12,100.00,996.12,1013.95,148,2.10,2.10,-92,1
1582161191,2020-02-20 02:13,100.00,996.09,1013.92,148,2.10,2.10,-93,1
1582161251,2020-02-20 02:14,100.00,996.11,1013.94,148,2.12,2.12,-93,1
1582161311,2020-02-20 02:15,100.00,996.13,1013.96,148,2.12,2.12,-93,1
1582161372,2020-02-20 02:16,100.00,996.12,1013.95,148,2.13,2.13,-93,1
1582161432,2020-02-20 02:17,100.00,996.11,1013.94,148,2.14,2.14,-94,1
1582161493,2020-02-20 02:18,100.00,996.17,1014.00,148,2.16,2.16,-92,1
1582161553,2020-02-20 02:19,100.00,996.16,1014.00,148,2.16,2.16,-92,1
1582161613,2020-02-20 02:20,100.00,996.16,1013.99,148,2.17,2.17,-94,1
1582161674,2020-02-20 02:21,100.00,996.19,1014.02,148,2.19,2.19,-90,1
1582161734,2020-02-20 02:22,100.00,996.21,1014.04,148,2.19,2.19,-93,1
1582161795,2020-02-20 02:23,100.00,996.25,1014.08,148,2.23,2.23,-93,1
1582161855,2020-02-20 02:24,100.00,996.29,1014.12,148,2.24,2.24,-92,1
1582161915,2020-02-20 02:25,100.00,996.25,1014.08,148,2.23,2.23,-92,1
1582161976,2020-02-20 02:26,100.00,996.30,1014.13,148,2.26,2.26,-92,1
1582162036,2020-02-20 02:27,100.00,996.27,1014.10,148,2.26,2.26,-93,1
1582162096,2020-02-20 02:28,100.00,996.31,1014.14,148,2.28,2.28,-90,1
1582162156,2020-02-20 02:29,100.00,996.31,1014.14,148,2.28,2.28,-93,1
1582162217,2020-02-20 02:30,100.00,996.31,1014.14,148,2.31,2.31,-91,1
1582162277,2020-02-20 02:31,100.00,996.37,1014.20,148,2.31,2.31,-92,1
1582162337,2020-02-20 02:32,100.00,996.27,1014.10,148,2.32,2.32,-92,1
1582162397,2020-02-20 02:33,100.00,996.35,1014.18,148,2.32,2.32,-92,1
1582162458,2020-02-20 02:34,100.00,996.36,1014.20,148,2.32,2.32,-92,1
1582162518,2020-02-20 02:35,100.00,996.39,1014.23,148,2.33,2.33,-91,1
1582162579,2020-02-20 02:36,100.00,996.38,1014.22,148,2.33,2.33,-92,1
1582162639,2020-02-20 02:37,100.00,996.37,1014.20,148,2.35,2.35,-93,1
1582162700,2020-02-20 02:38,100.00,996.37,1014.20,148,2.36,2.36,-91,1
1582162761,2020-02-20 02:39,100.00,996.42,1014.25,148,2.36,2.36,-93,1
1582162821,2020-02-20 02:40,100.00,996.39,1014.22,148,2.36,2.36,-92,1
1582162882,2020-02-20 02:41,100.00,996.41,1014.25,148,2.37,2.37,-93,1
1582162942,2020-02-20 02:42,100.00,996.40,1014.23,148,2.39,2.39,-90,1
1582163003,2020-02-20 02:43,100.00,996.38,1014.21,148,2.38,2.38,-91,1
1582163063,2020-02-20 02:44,100.00,996.38,1014.22,148,2.41,2.41,-91,1
1582163124,2020-02-20 02:45,100.00,996.41,1014.24,148,2.42,2.42,-94,1
1582163184,2020-02-20 02:46,100.00,996.42,1014.26,148,2.39,2.39,-92,1
1582163245,2020-02-20 02:47,100.00,996.44,1014.27,148,2.42,2.42,-91,1
1582163305,2020-02-20 02:48,100.00,996.50,1014.33,148,2.43,2.43,-92,1
1582163366,2020-02-20 02:49,100.00,996.46,1014.29,148,2.40,2.40,-93,1
1582163427,2020-02-20 02:50,100.00,996.48,1014.31,148,2.42,2.42,-94,1
1582163490,2020-02-20 02:51,100.00,996.52,1014.35,148,2.45,2.45,-92,1
1582163551,2020-02-20 02:52,100.00,996.53,1014.36,148,2.45,2.45,-92,1
1582163611,2020-02-20 02:53,100.00,996.58,1014.41,148,2.46,2.46,-92,1
1582163672,2020-02-20 02:54,100.00,996.58,1014.41,148,2.48,2.48,-90,1
1582163732,2020-02-20 02:55,100.00,996.57,1014.40,148,2.49,2.49,-92,1
1582163793,2020-02-20 02:56,100.00,996.58,1014.41,148,2.51,2.51,-92,1
1582163853,2020-02-20 02:57,100.00,996.61,1014.44,148,2.52,2.52,-95,1
1582163914,2020-02-20 02:58,100.00,996.57,1014.40,148,2.55,2.55,-92,1
1582163974,2020-02-20 02:59,100.00,996.62,1014.45,148,2.56,2.56,-91,1
1582164037,2020-02-20 03:00,100.00,996.65,1014.49,148,2.58,2.58,-93,1
1582164161,2020-02-20 03:02,100.00,996.65,1014.48,148,2.64,2.64,-92,1
1582164221,2020-02-20 03:03,100.00,996.66,1014.49,148,2.64,2.64,-92,1
1582164282,2020-02-20 03:04,100.00,996.67,1014.50,148,2.64,2.64,-92,1
1582164342,2020-02-20 03:05,100.00,996.67,1014.50,148,2.67,2.67,-90,1
1582164403,2020-02-20 03:06,100.00,996.65,1014.48,148,2.68,2.68,-92,1
1582164463,2020-02-20 03:07,100.00,996.66,1014.49,148,2.68,2.68,-92,1
1582164524,2020-02-20 03:08,100.00,996.71,1014.54,148,2.69,2.69,-93,1
1582164585,2020-02-20 03:09,100.00,996.71,1014.54,148,2.71,2.71,-90,1
1582164645,2020-02-20 03:10,100.00,996.73,1014.56,148,2.74,2.74,-93,1
1582164705,2020-02-20 03:11,100.00,996.74,1014.57,148,2.75,2.75,-91,1
1582164766,2020-02-20 03:12,100.00,996.76,1014.59,148,2.75,2.75,-92,1
1582164827,2020-02-20 03:13,100.00,996.73,1014.56,148,2.78,2.78,-94,1
1582164887,2020-02-20 03:14,100.00,996.73,1014.57,148,2.74,2.74,-93,1
1582164948,2020-02-20 03:15,100.00,996.78,1014.62,148,2.77,2.77,-93,1
1582165009,2020-02-20 03:16,100.00,996.74,1014.57,148,2.76,2.76,-92,1
1582165069,2020-02-20 03:17,100.00,996.79,1014.62,148,2.78,2.78,-92,1
1582165130,2020-02-20 03:18,100.00,996.76,1014.59,148,2.73,2.73,-93,1
1582165191,2020-02-20 03:19,100.00,996.77,1014.60,148,2.78,2.78,-93,1
1582165251,2020-02-20 03:20,100.00,996.79,1014.62,148,2.80,2.80,-91,1
1582165312,2020-02-20 03:21,100.00,996.80,1014.63,148,2.78,2.78,-91,1
1582165372,2020-02-20 03:22,100.00,996.80,1014.63,148,2.79,2.79,-93,1
1582165435,2020-02-20 03:23,100.00,996.83,1014.66,148,2.77,2.77,-93,1
1582165495,2020-02-20 03:24,100.00,996.81,1014.64,148,2.79,2.79,-94,1
1582165555,2020-02-20 03:25,100.00,996.83,1014.66,148,2.79,2.79,-93,1
1582165616,2020-02-20 03:26,100.00,996.86,1014.69,148,2.80,2.80,-90,1
1582165676,2020-02-20 03:27,100.00,996.89,1014.72,148,2.81,2.81,-93,1
1582165736,2020-02-20 03:28,100.00,996.91,1014.74,148,2.81,2.81,-92,1
1582165799,2020-02-20 03:29,100.00,996.90,1014.74,148,2.81,2.81,-91,1
1582165859,2020-02-20 03:30,100.00,996.94,1014.77,148,2.79,2.79,-93,1
1582165920,2020-02-20 03:32,100.00,996.96,1014.79,148,2.83,2.83,-92,1
1582165981,2020-02-20 03:33,100.00,996.96,1014.79,148,2.83,2.83,-94,1
1582166041,2020-02-20 03:34,100.00,996.96,1014.79,148,2.83,2.83,-93,1
1582166102,2020-02-20 03:35,100.00,996.97,1014.81,148,2.80,2.80,-93,1
1582166226,2020-02-20 03:37,100.00,997.02,1014.86,148,2.83,2.83,-92,1
1582166286,2020-02-20 03:38,100.00,997.05,1014.88,148,2.78,2.78,-93,1
1582166347,2020-02-20 03:39,100.00,997.05,1014.88,148,2.80,2.80,-92,1
1582166408,2020-02-20 03:40,100.00,997.06,1014.89,148,2.79,2.79,-92,1
1582166468,2020-02-20 03:41,100.00,997.09,1014.92,148,2.81,2.81,-93,1
1582166528,2020-02-20 03:42,100.00,997.08,1014.91,148,2.82,2.82,-91,1
1582166588,2020-02-20 03:43,100.00,997.13,1014.97,148,2.80,2.80,-94,1
1582166648,2020-02-20 03:44,100.00,997.13,1014.96,148,2.82,2.82,-91,1
1582166709,2020-02-20 03:45,100.00,997.10,1014.93,148,2.83,2.83,-92,1
1582166769,2020-02-20 03:46,100.00,997.11,1014.94,148,2.84,2.84,-91,1
1582166829,2020-02-20 03:47,100.00,997.17,1015.00,148,2.62,2.62,-91,1
1582166890,2020-02-20 03:48,100.00,997.14,1014.97,148,2.83,2.83,-93,1
1582166950,2020-02-20 03:49,100.00,997.13,1014.96,148,2.84,2.84,-93,1
1582167014,2020-02-20 03:50,100.00,997.12,1014.95,148,2.84,2.84,-94,1
1582167075,2020-02-20 03:51,100.00,997.13,1014.96,148,2.84,2.84,-92,1
1582167135,2020-02-20 03:52,100.00,997.19,1015.02,148,2.81,2.81,-93,1
1582167196,2020-02-20 03:53,100.00,997.19,1015.02,148,2.84,2.84,-92,1
1582167257,2020-02-20 03:54,100.00,997.24,1015.07,148,2.85,2.85,-91,1
1582167320,2020-02-20 03:55,100.00,997.22,1015.05,148,2.83,2.83,-93,1
1582167443,2020-02-20 03:57,100.00,997.29,1015.12,148,2.85,2.85,-93,1
1582167504,2020-02-20 03:58,100.00,997.30,1015.13,148,2.84,2.84,-93,1
1582167564,2020-02-20 03:59,100.00,997.34,1015.17,148,2.85,2.85,-92,1
1582167625,2020-02-20 04:00,100.00,997.34,1015.17,148,2.83,2.83,-92,1
1582167685,2020-02-20 04:01,100.00,997.37,1015.20,148,2.85,2.85,-90,1
1582167746,2020-02-20 04:02,100.00,997.37,1015.20,148,2.86,2.86,-91,1
1582167807,2020-02-20 04:03,100.00,997.36,1015.19,148,2.85,2.85,-92,1
1582167867,2020-02-20 04:04,100.00,997.08,1014.91,148,2.86,2.86,-92,1
1582167994,2020-02-20 04:06,100.00,997.37,1015.20,148,2.84,2.84,-92,1
1582168057,2020-02-20 04:07,100.00,997.37,1015.20,148,2.83,2.83,-93,1
1582168120,2020-02-20 04:08,100.00,997.36,1015.19,148,2.85,2.85,-93,1
1582168180,2020-02-20 04:09,100.00,997.41,1015.24,148,2.85,2.85,-92,1
1582168304,2020-02-20 04:11,100.00,997.46,1015.29,148,2.84,2.84,-92,1
1582168427,2020-02-20 04:13,100.00,997.48,1015.31,148,2.84,2.84,-91,1
1582168488,2020-02-20 04:14,100.00,997.46,1015.29,148,2.83,2.83,-91,1
1582168548,2020-02-20 04:15,100.00,997.53,1015.36,148,2.87,2.87,-92,1
1582168609,2020-02-20 04:16,100.00,997.53,1015.36,148,2.85,2.85,-91,1
1582168673,2020-02-20 04:17,100.00,997.52,1015.35,148,2.85,2.85,-92,1
1582168733,2020-02-20 04:18,100.00,997.54,1015.37,148,2.82,2.82,-92,1
1582168793,2020-02-20 04:19,100.00,997.55,1015.38,148,2.82,2.82,-91,1
1582168854,2020-02-20 04:20,100.00,997.58,1015.41,148,2.84,2.84,-92,1
1582168914,2020-02-20 04:21,100.00,997.57,1015.40,148,2.86,2.86,-92,1
1582168977,2020-02-20 04:22,100.00,997.58,1015.41,148,2.85,2.85,-94,1
1582169038,2020-02-20 04:23,100.00,997.61,1015.44,148,2.85,2.85,-92,1
1582169099,2020-02-20 04:24,100.00,997.63,1015.47,148,2.86,2.86,-92,1
1582169159,2020-02-20 04:25,100.00,997.67,1015.50,148,2.83,2.83,-92,1
1582169220,2020-02-20 04:27,100.00,997.69,1015.52,148,2.83,2.83,-92,1
1582169280,2020-02-20 04:28,100.00,997.68,1015.51,148,2.84,2.84,-93,1
1582169407,2020-02-20 04:30,100.00,997.73,1015.56,148,2.85,2.85,-92,1
1582169467,2020-02-20 04:31,100.00,997.70,1015.53,148,2.85,2.85,-91,1
1582169527,2020-02-20 04:32,100.00,997.76,1015.59,148,2.84,2.84,-90,1
1582169590,2020-02-20 04:33,100.00,997.11,1014.94,148,2.84,2.84,-93,1
1582169651,2020-02-20 04:34,100.00,997.75,1015.59,148,2.86,2.86,-92,1
1582169711,2020-02-20 04:35,100.00,997.80,1015.63,148,2.87,2.87,-92,1
1582169771,2020-02-20 04:36,100.00,997.77,1015.60,148,2.87,2.87,-90,1
1582169835,2020-02-20 04:37,100.00,997.76,1015.59,148,2.87,2.87,-93,1
1582169895,2020-02-20 04:38,100.00,997.81,1015.64,148,2.84,2.84,-93,1
1582169955,2020-02-20 04:39,100.00,997.78,1015.61,148,2.86,2.86,-91,1
1582170018,2020-02-20 04:40,100.00,997.80,1015.64,148,2.88,2.88,-92,1
1582170079,2020-02-20 04:41,100.00,997.86,1015.69,148,2.86,2.86,-92,1
1582170140,2020-02-20 04:42,100.00,997.83,1015.66,148,2.88,2.88,-92,1
1582170200,2020-02-20 04:43,100.00,997.84,1015.68,148,2.88,2.88,-91,1
1582170263,2020-02-20 04:44,100.00,997.85,1015.69,148,2.89,2.89,-92,1
1582170323,2020-02-20 04:45,100.00,997.85,1015.68,148,2.88,2.88,-92,1
1582170383,2020-02-20 04:46,100.00,997.85,1015.68,148,2.88,2.88,-93,1
1582170444,2020-02-20 04:47,100.00,997.86,1015.69,148,2.89,2.89,-95,1
1582170505,2020-02-20 04:48,100.00,997.88,1015.71,148,2.87,2.87,-91,1
1582170568,2020-02-20 04:49,100.00,997.88,1015.71,148,2.87,2.87,-93,1
1582170628,2020-02-20 04:50,100.00,997.90,1015.73,148,2.86,2.86,-93,1
1582170689,2020-02-20 04:51,100.00,997.89,1015.73,148,2.88,2.88,-91,1
1582170749,2020-02-20 04:52,100.00,997.89,1015.72,148,2.87,2.87,-92,1
1582170810,2020-02-20 04:53,100.00,997.93,1015.76,148,2.87,2.87,-91,1
1582170874,2020-02-20 04:54,100.00,997.92,1015.75,148,2.87,2.87,-91,1
1582170934,2020-02-20 04:55,100.00,997.97,1015.80,148,2.87,2.87,-92,1
1582170998,2020-02-20 04:56,100.00,997.98,1015.81,148,2.88,2.88,-92,1
1582171058,2020-02-20 04:57,100.00,997.98,1015.82,148,2.88,2.88,-91,1
1582171118,2020-02-20 04:58,100.00,998.00,1015.83,148,2.88,2.88,-91,1
1582171178,2020-02-20 04:59,100.00,998.01,1015.84,148,2.89,2.89,-92,1
1582171238,2020-02-20 05:00,100.00,998.00,1015.83,148,2.90,2.90,-91,1
1582171299,2020-02-20 05:01,100.00,997.99,1015.83,148,2.86,2.86,-93,1
1582171359,2020-02-20 05:02,100.00,998.06,1015.89,148,2.89,2.89,-91,1
1582171419,2020-02-20 05:03,100.00,998.05,1015.88,148,2.87,2.87,-92,1
1582171480,2020-02-20 05:04,100.00,998.12,1015.95,148,2.86,2.86,-94,1
1582171540,2020-02-20 05:05,100.00,998.14,1015.97,148,2.86,2.86,-91,1
1582171600,2020-02-20 05:06,100.00,998.12,1015.95,148,2.89,2.89,-91,1
1582171661,2020-02-20 05:07,100.00,998.16,1016.00,148,2.90,2.90,-92,1
1582171721,2020-02-20 05:08,100.00,998.14,1015.97,148,2.89,2.89,-89,1
1582171781,2020-02-20 05:09,100.00,998.17,1016.00,148,2.90,2.90,-93,1
1582171841,2020-02-20 05:10,100.00,998.22,1016.05,148,2.90,2.90,-91,1
1582171902,2020-02-20 05:11,100.00,998.23,1016.06,148,2.89,2.89,-93,1
1582171962,2020-02-20 05:12,100.00,998.23,1016.06,148,2.92,2.92,-93,1
1582172023,2020-02-20 05:13,100.00,998.25,1016.08,148,2.90,2.90,-92,1
1582172083,2020-02-20 05:14,100.00,998.24,1016.07,148,2.91,2.91,-94,1
1582172143,2020-02-20 05:15,100.00,998.27,1016.10,148,2.89,2.89,-91,1
1582172203,2020-02-20 05:16,100.00,998.24,1016.07,148,2.92,2.92,-93,1
1582172263,2020-02-20 05:17,100.00,998.27,1016.10,148,2.92,2.92,-92,1
1582172323,2020-02-20 05:18,100.00,998.28,1016.11,148,2.92,2.92,-92,1
1582172383,2020-02-20 05:19,100.00,998.33,1016.17,148,2.91,2.91,-92,1
1582172444,2020-02-20 05:20,100.00,998.34,1016.17,148,2.92,2.92,-91,1
1582172504,2020-02-20 05:21,100.00,998.30,1016.13,148,2.93,2.93,-90,1
1582172564,2020-02-20 05:22,100.00,998.33,1016.16,148,2.89,2.89,-92,1
1582172624,2020-02-20 05:23,100.00,998.29,1016.12,148,2.92,2.92,-91,1
1582172684,2020-02-20 05:24,100.00,998.35,1016.18,148,2.93,2.93,-91,1
1582172744,2020-02-20 05:25,100.00,998.30,1016.14,148,2.93,2.93,-93,1
1582172805,2020-02-20 05:26,100.00,998.39,1016.22,148,2.91,2.91,-92,1
1582172865,2020-02-20 05:27,100.00,998.43,1016.26,148,2.89,2.89,-93,1
1582172925,2020-02-20 05:28,100.00,998.42,1016.25,148,2.92,2.92,-93,1
1582172985,2020-02-20 05:29,100.00,998.41,1016.25,148,2.92,2.92,-91,1
1582173045,2020-02-20 05:30,100.00,998.43,1016.26,148,2.93,2.93,-92,1
1582173105,2020-02-20 05:31,100.00,998.43,1016.26,148,2.93,2.93,-91,1
1582173165,2020-02-20 05:32,100.00,998.46,1016.29,148,2.91,2.91,-93,1
1582173226,2020-02-20 05:33,100.00,998.47,1016.30,148,2.92,2.92,-93,1
1582173286,2020-02-20 05:34,100.00,998.48,1016.32,148,2.91,2.91,-93,1
1582173346,2020-02-20 05:35,100.00,998.49,1016.32,148,2.90,2.90,-91,1
1582173406,2020-02-20 05:36,100.00,998.49,1016.32,148,2.91,2.91,-92,1
1582173469,2020-02-20 05:37,100.00,998.56,1016.39,148,2.91,2.91,-94,1
1582173529,2020-02-20 05:38,100.00,998.56,1016.39,148,2.94,2.94,-92,1
1582173589,2020-02-20 05:39,100.00,998.56,1016.39,148,2.90,2.90,-92,1
1582173649,2020-02-20 05:40,100.00,998.59,1016.42,148,2.94,2.94,-91,1
1582173709,2020-02-20 05:41,100.00,998.61,1016.44,148,2.93,2.93,-91,1
1582173769,2020-02-20 05:42,100.00,998.62,1016.45,148,2.92,2.92,-91,1
1582173829,2020-02-20 05:43,100.00,998.63,1016.46,148,2.94,2.94,-92,1
1582173890,2020-02-20 05:44,100.00,998.67,1016.51,148,2.95,2.95,-92,1
1582173950,2020-02-20 05:45,100.00,998.62,1016.45,148,2.96,2.96,-93,1
1582174010,2020-02-20 05:46,100.00,998.66,1016.49,148,2.94,2.94,-92,1
1582174070,2020-02-20 05:47,100.00,998.63,1016.47,148,2.94,2.94,-92,1
1582174130,2020-02-20 05:48,100.00,998.65,1016.49,148,2.92,2.92,-91,1
1582174190,2020-02-20 05:49,100.00,998.68,1016.51,148,2.93,2.93,-93,1
1582174250,2020-02-20 05:50,100.00,998.72,1016.55,148,2.92,2.92,-91,1
1582174311,2020-02-20 05:51,100.00,998.73,1016.56,148,2.92,2.92,-91,1
1582174371,2020-02-20 05:52,100.00,998.77,1016.61,148,2.93,2.93,-92,1
1582174431,2020-02-20 05:53,100.00,998.74,1016.58,148,2.90,2.90,-92,1